[Date Prev][Date Next][Thread Prev][Thread Next] - [Date Index][Thread Index][Author Index]
2 Line ISS Keps 5-4
- Subject: [sarex] 2 Line ISS Keps 5-4
- From: "Dave Larsen PhD" <doc@xxxxxxxxxxx>
- Date: Wed, 3 May 2006 19:20:43 -0700
ISS
1 25544U 98067A 06123.96364470 .00019180 00000-0 12497-3 0 8579
2 25544 051.6378 055.1114 0008562 180.9559 220.4563 15.75899296426192
----
Via the sarex mailing list at AMSAT.ORG courtesy of AMSAT-NA.
To unsubscribe, send "unsubscribe sarex" to Majordomo@amsat.org
AMSAT Home